"SCET";"TARGET";"ELECTRON_DENSITY";"ERROR_FLAG";"ELECTRON_DENSITY_ERROR";"FREQ_FCE";"MEASURED_VALUE";"MEASURED_ITEM";"FREQ_PLASMA";"FREQ_UPPER_HYBRID";"FREQ_R_EQUALS_ZERO";"FREQ_L_EQUALS_ZERO";"ORBIT_NUMBER";"SATURN_RADIUS";"SATURN_IAU_LONGITUDE";"SATURN_SLS4_S_LONGITUDE";"SATURN_SLS4_N_LONGITUDE";"SATURN_SLS5_S_LONGITUDE";"SATURN_SLS5_N_LONGITUDE";"SATURN_LOCAL_TIME";"SATURN_KRONOGRAPHIC_LATITUDE";"SATURN_MAGNETIC_LATITUDE";"SATURN_L";"SATURN_L_OFFSET";"SATURN_SOLAR_EQUATORIAL_X";"SATURN_SOLAR_EQUATORIAL_Y";"SATURN_SOLAR_EQUATORIAL_Z";"SATURN_ALTITUDE";"ENCELADUS_ENCOUNTER_NUMBER";"ENCELADUS_RADIUS";"ENCELADUS_COROTATIONAL_X";"ENCELADUS_COROTATIONAL_Y";"ENCELADUS_COROTATIONAL_Z";"ENCELADUS_TRUE_ANOMALY";"ENCELADUS_PERIAPSIS_TIME";"JUPITER_RADIUS";"JUPITER_SYSTEMIII_LONGITUDE";"JUPITER_MAGNETIC_LATITUDE";"JUPITER_MAGNETIC_LOCAL_TIME";"JUPITER_L";"IO_PHASE";"EARTH_RADIUS";"EARTH_MAGNETIC_LATITUDE";"EARTH_LOCAL_TIME";"EARTH_L"
"[UTC]";"[0=Saturn, 1=Enceladus, 2=Jupiter, 3=Earth]";"[cm-3]";"[0=automated, 1=manual]";"[normalized density error]";"[Hz]";"[Hz]";"[0=upper hybrid frequency, 1=plasma frequency cutoff]";"[Hz]";"[Hz]";"[Hz]";"[Hz}";"[0, A, B, C, 3, 4, ... , 292, 293]";"[Rs where 1Rs=60268km]";"[degrees]";"[degrees]";"[degrees]";"[degrees]";"[degrees]";"[hours]";"[degrees]";"[degrees where offset=2293km north]";"[Rs where 1Rs=60268km]";"[Rs where 1Rs=60268km and offset=2293km north]";"[Rs where 1Rs=60268km]";"[Rs where 1Rs=60268km]";"[Rs where 1Rs=60268km]";"[km where ellipsoid a,b=60268km and c=54364km]";"[E0, E1, E2, ... , E21, E22]";"[Renc where 1Renc=252.1km]";"[Renc where 1Renc=252.1km]";"[Renc where 1Renc=252.1km]";"[Renc where 1Renc=252.1km]";"[degrees]";"[UTC]";"[Rj where 1Rj=71492km]";"[degrees]";"[degrees using JRM09 model]";"[hours using JRM09 model]";"[Rj where 1Rj=71492km]";"[degrees]";"[Re where 1Re=6378.1366km]";"[degrees]";"[hours]";"[Re where 1Re=6378.1366km]"
2008-12-09T16:19:51.278Z;0;1.4590e+01;0;     0.160;  2898.728;  34418.098; 0;  34295.812;  34418.098;  35775.789;  32877.062; 96;   5.828; 338.895; 287.583; 225.210; 240.594; 199.592;  22.132;  11.226;  10.859;   6.057;   5.815;  -5.046;   2.686;   1.134;;;;;;;;;;;;;;;;;;
2008-12-09T16:20:07.278Z;0;1.4040e+01;0;     0.175;  2900.800;  33778.742; 0;  33653.957;  33778.742;  35135.598;  32234.797; 96;   5.828; 339.035; 287.721; 225.351; 240.733; 199.735;  22.133;  11.194;  10.827;   6.056;   5.814;  -5.047;   2.685;   1.131;;;;;;;;;;;;;;;;;;
2008-12-09T16:20:23.278Z;0;1.3840e+01;0;     0.139;  2900.800;  33529.246; 0;  33403.527;  33529.246;  34885.402;  31984.602; 96;   5.827; 339.175; 287.858; 225.492; 240.871; 199.877;  22.133;  11.162;  10.795;   6.054;   5.814;  -5.048;   2.684;   1.128;;;;;;;;;;;;;;;;;;
2008-12-09T16:21:27.277Z;0;1.5920e+01;0;     0.169;  2908.696;  35943.844; 0;  35825.961;  35943.844;  37309.816;  34401.117; 96;   5.826; 339.734; 288.409; 226.055; 241.421; 200.444;  22.136;  11.034;  10.666;   6.048;   5.813;  -5.051;   2.681;   1.115;;;;;;;;;;;;;;;;;;
2008-12-09T16:21:35.277Z;0;1.4020e+01;0;     0.155;  2908.696;  33750.203; 0;  33624.629;  33750.203;  35110.414;  32201.719; 96;   5.826; 339.804; 288.478; 226.125; 241.490; 200.515;  22.136;  11.018;  10.650;   6.047;   5.813;  -5.051;   2.681;   1.113;;;;;;;;;;;;;;;;;;
2008-12-09T16:21:43.277Z;0;1.3550e+01;0;     0.214;  2908.696;  33180.281; 0;  33052.543;  33180.281;  34538.871;  31630.176; 96;   5.826; 339.874; 288.547; 226.195; 241.558; 200.586;  22.137;  11.002;  10.634;   6.046;   5.813;  -5.052;   2.680;   1.112;;;;;;;;;;;;;;;;;;
2008-12-09T16:21:59.277Z;0;1.3250e+01;0;     0.210;  2908.696;  32815.531; 0;  32686.367;  32815.531;  34173.055;  31264.357; 96;   5.825; 340.014; 288.685; 226.336; 241.695; 200.727;  22.137;  10.970;  10.602;   6.044;   5.812;  -5.053;   2.680;   1.108;;;;;;;;;;;;;;;;;;
2008-12-09T16:22:39.277Z;0;1.6010e+01;0;     0.200;  2916.732;  36050.836; 0;  35932.652;  36050.836;  37420.602;  34503.867; 96;   5.825; 340.364; 289.029; 226.688; 242.038; 201.082;  22.139;  10.890;  10.522;   6.040;   5.812;  -5.054;   2.678;   1.100;;;;;;;;;;;;;;;;;;
2008-12-09T16:23:35.276Z;0;1.6760e+01;0;     0.175;  2937.928;  36881.043; 0;  36763.840;  36881.043;  38262.141;  35324.211; 96;   5.824; 340.854; 289.511; 227.181; 242.518; 201.578;  22.141;  10.777;  10.409;   6.035;   5.811;  -5.057;   2.675;   1.089;;;;;;;;;;;;;;;;;;
2008-12-09T16:23:59.276Z;0;1.4410e+01;0;     0.158;  2937.928;  34210.293; 0;  34083.906;  34210.293;  35584.512;  32646.584; 96;   5.823; 341.064; 289.717; 227.392; 242.723; 201.791;  22.142;  10.729;  10.361;   6.032;   5.810;  -5.058;   2.674;   1.084;;;;;;;;;;;;;;;;;;
2008-12-09T16:24:07.276Z;0;1.5010e+01;0;     0.138;  2934.820;  34912.723; 0;  34789.152;  34912.723;  36287.496;  33352.676; 96;   5.823; 341.134; 289.786; 227.462; 242.791; 201.861;  22.143;  10.713;  10.345;   6.032;   5.810;  -5.059;   2.674;   1.082;;;;;;;;;;;;;;;;;;
2008-12-09T16:24:15.276Z;0;1.5440e+01;0;     0.101;  2934.820;  35406.633; 0;  35284.793;  35406.633;  36782.699;  33847.879; 96;   5.823; 341.204; 289.855; 227.533; 242.859; 201.932;  22.143;  10.697;  10.329;   6.031;   5.810;  -5.059;   2.673;   1.081;;;;;;;;;;;;;;;;;;
2008-12-09T16:24:23.276Z;0;1.5710e+01;0;     0.113;  2934.820;  35714.039; 0;  35593.250;  35714.039;  37090.895;  34156.074; 96;   5.823; 341.273; 289.924; 227.603; 242.928; 202.003;  22.143;  10.681;  10.313;   6.030;   5.810;  -5.059;   2.673;   1.079;;;;;;;;;;;;;;;;;;
2008-12-09T16:24:31.276Z;0;1.5780e+01;0;     0.114;  2934.820;  35797.945; 0;  35677.441;  35797.945;  37175.016;  34240.195; 96;   5.823; 341.343; 289.993; 227.674; 242.996; 202.074;  22.144;  10.665;  10.297;   6.029;   5.810;  -5.060;   2.673;   1.077;;;;;;;;;;;;;;;;;;
2008-12-09T16:24:39.276Z;0;1.5100e+01;0;     0.111;  2934.820;  35020.141; 0;  34896.949;  35020.141;  36395.199;  33460.379; 96;   5.823; 341.413; 290.062; 227.744; 243.064; 202.145;  22.144;  10.649;  10.281;   6.028;   5.810;  -5.060;   2.672;   1.076;;;;;;;;;;;;;;;;;;
2008-12-09T16:24:55.276Z;0;1.6190e+01;0;     0.139;  2934.820;  36249.082; 0;  36130.082;  36249.082;  37627.277;  34692.457; 96;   5.822; 341.553; 290.200; 227.885; 243.201; 202.287;  22.145;  10.617;  10.249;   6.027;   5.810;  -5.061;   2.671;   1.072;;;;;;;;;;;;;;;;;;
2008-12-09T16:25:03.276Z;0;1.6220e+01;0;     0.123;  2919.112;  36280.367; 0;  36162.742;  36280.367;  37651.738;  34732.629; 96;   5.822; 341.623; 290.268; 227.955; 243.269; 202.358;  22.145;  10.601;  10.232;   6.026;   5.809;  -5.061;   2.671;   1.071;;;;;;;;;;;;;;;;;;
2008-12-09T16:25:11.276Z;0;1.6320e+01;0;     0.095;  2919.112;  36398.617; 0;  36281.375;  36398.617;  37770.277;  34851.164; 96;   5.822; 341.693; 290.337; 228.026; 243.337; 202.429;  22.146;  10.585;  10.216;   6.025;   5.809;  -5.062;   2.671;   1.069;;;;;;;;;;;;;;;;;;
2008-12-09T16:25:27.276Z;0;1.6370e+01;0;     0.142;  2919.112;  36447.031; 0;  36329.945;  36447.031;  37818.809;  34899.695; 96;   5.822; 341.833; 290.475; 228.166; 243.474; 202.570;  22.146;  10.553;  10.184;   6.024;   5.809;  -5.063;   2.670;   1.066;;;;;;;;;;;;;;;;;;
2008-12-09T16:25:35.276Z;0;1.5670e+01;0;     0.118;  2919.112;  35666.535; 0;  35546.879;  35666.535;  37036.387;  34117.273; 96;   5.822; 341.903; 290.544; 228.237; 243.542; 202.641;  22.147;  10.537;  10.168;   6.023;   5.809;  -5.063;   2.670;   1.064;;;;;;;;;;;;;;;;;;
2008-12-09T16:25:43.275Z;0;1.6340e+01;0;     0.142;  2919.112;  36411.879; 0;  36294.680;  36411.879;  37783.570;  34864.457; 96;   5.821; 341.973; 290.613; 228.307; 243.610; 202.712;  22.147;  10.521;  10.152;   6.022;   5.809;  -5.063;   2.669;   1.063;;;;;;;;;;;;;;;;;;
2008-12-09T16:25:51.275Z;0;1.5930e+01;0;     0.113;  2919.112;  35954.730; 0;  35836.035;  35954.730;  37325.301;  34406.191; 96;   5.821; 342.043; 290.682; 228.377; 243.678; 202.783;  22.147;  10.504;  10.136;   6.021;   5.809;  -5.064;   2.669;   1.061;;;;;;;;;;;;;;;;;;
2008-12-09T16:25:59.275Z;0;1.6120e+01;0;     0.127;  2919.112;  36176.965; 0;  36059.000;  36176.965;  37548.086;  34628.973; 96;   5.821; 342.113; 290.750; 228.448; 243.746; 202.854;  22.148;  10.488;  10.120;   6.021;   5.808;  -5.064;   2.668;   1.059;;;;;;;;;;;;;;;;;;
2008-12-09T16:26:07.275Z;0;1.7660e+01;0;     0.120;  2901.668;  37844.207; 0;  37732.801;  37844.207;  39211.520;  36309.852; 96;   5.821; 342.183; 290.819; 228.518; 243.814; 202.925;  22.148;  10.472;  10.104;   6.020;   5.808;  -5.064;   2.668;   1.058;;;;;;;;;;;;;;;;;;
2008-12-09T16:26:15.275Z;0;1.7960e+01;0;     0.110;  2901.668;  38167.730; 0;  38057.273;  38167.730;  39535.750;  36634.082; 96;   5.821; 342.253; 290.888; 228.589; 243.882; 202.996;  22.148;  10.456;  10.088;   6.019;   5.808;  -5.065;   2.668;   1.056;;;;;;;;;;;;;;;;;;
2008-12-09T16:26:23.275Z;0;1.5920e+01;0;     0.116;  2901.668;  35942.512; 0;  35825.191;  35942.512;  37305.395;  34403.727; 96;   5.821; 342.323; 290.957; 228.659; 243.950; 203.067;  22.149;  10.440;  10.072;   6.018;   5.808;  -5.065;   2.667;   1.055;;;;;;;;;;;;;;;;;;
2008-12-09T16:26:31.275Z;0;1.5930e+01;0;     0.173;  2901.668;  35959.320; 0;  35842.059;  35959.320;  37322.242;  34420.574; 96;   5.821; 342.393; 291.026; 228.729; 244.018; 203.137;  22.149;  10.424;  10.055;   6.018;   5.808;  -5.066;   2.667;   1.053;;;;;;;;;;;;;;;;;;
2008-12-09T16:26:39.275Z;0;1.4150e+01;0;     0.174;  2901.668;  33904.883; 0;  33780.488;  33904.883;  35262.465;  32360.797; 96;   5.820; 342.463; 291.095; 228.800; 244.086; 203.208;  22.149;  10.408;  10.039;   6.017;   5.808;  -5.066;   2.666;   1.051;;;;;;;;;;;;;;;;;;
2008-12-09T16:26:47.275Z;0;1.4770e+01;0;     0.174;  2901.668;  34629.938; 0;  34508.156;  34629.938;  35989.477;  33087.809; 96;   5.820; 342.533; 291.164; 228.870; 244.154; 203.279;  22.150;  10.392;  10.023;   6.016;   5.808;  -5.066;   2.666;   1.050;;;;;;;;;;;;;;;;;;
2008-12-09T16:26:55.275Z;0;1.4890e+01;0;     0.214;  2901.668;  34773.012; 0;  34651.734;  34773.012;  36132.926;  33231.258; 96;   5.820; 342.603; 291.233; 228.941; 244.222; 203.350;  22.150;  10.376;  10.007;   6.015;   5.808;  -5.067;   2.666;   1.048;;;;;;;;;;;;;;;;;;
2008-12-09T16:27:03.275Z;0;1.3490e+01;0;     0.193;  2855.468;  33103.102; 0;  32979.715;  33103.102;  34438.340;  31582.871; 96;   5.820; 342.673; 291.301; 229.011; 244.290; 203.421;  22.150;  10.360;   9.991;   6.015;   5.807;  -5.067;   2.665;   1.046;;;;;;;;;;;;;;;;;;
2008-12-09T16:28:39.274Z;0;1.8320e+01;0;     0.133;  2858.212;  38547.434; 0;  38441.324;  38547.434;  39896.984;  37038.773; 96;   5.818; 343.512; 292.128; 229.856; 245.105; 204.272;  22.154;  10.167;   9.798;   6.006;   5.806;  -5.072;   2.661;   1.027;;;;;;;;;;;;;;;;;;
2008-12-09T16:28:47.274Z;0;1.7670e+01;0;     0.192;  2858.212;  37852.297; 0;  37744.230;  37852.297;  39200.383;  36342.172; 96;   5.818; 343.582; 292.197; 229.926; 245.172; 204.343;  22.155;  10.151;   9.782;   6.005;   5.806;  -5.072;   2.660;   1.025;;;;;;;;;;;;;;;;;;
2008-12-09T16:28:55.274Z;0;1.3340e+01;0;     0.222;  2858.212;  32928.812; 0;  32804.531;  32928.812;  34264.754;  31406.541; 96;   5.818; 343.652; 292.266; 229.997; 245.240; 204.414;  22.155;  10.135;   9.766;   6.004;   5.806;  -5.072;   2.660;   1.024;;;;;;;;;;;;;;;;;;
2008-12-09T16:29:19.274Z;0;1.7240e+01;0;     0.182;  2857.764;  37394.340; 0;  37284.980;  37394.340;  38741.234;  35883.469; 96;   5.818; 343.862; 292.472; 230.208; 245.443; 204.626;  22.156;  10.087;   9.717;   6.002;   5.805;  -5.073;   2.659;   1.019;;;;;;;;;;;;;;;;;;
2008-12-09T16:29:27.274Z;0;1.9510e+01;0;     0.184;  2857.764;  39765.840; 0;  39663.020;  39765.840;  41117.633;  38259.867; 96;   5.818; 343.932; 292.541; 230.278; 245.511; 204.697;  22.156;  10.071;   9.701;   6.001;   5.805;  -5.074;   2.659;   1.017;;;;;;;;;;;;;;;;;;
2008-12-09T16:29:35.274Z;0;1.5660e+01;0;     0.163;  2857.764;  35648.176; 0;  35533.445;  35648.176;  36991.043;  34133.281; 96;   5.817; 344.002; 292.610; 230.349; 245.578; 204.768;  22.157;  10.054;   9.685;   6.000;   5.805;  -5.074;   2.658;   1.015;;;;;;;;;;;;;;;;;;
2008-12-09T16:29:43.274Z;0;1.5160e+01;0;     0.239;  2857.764;  35084.609; 0;  34968.027;  35084.609;  36426.094;  33568.328; 96;   5.817; 344.072; 292.679; 230.419; 245.646; 204.839;  22.157;  10.038;   9.669;   6.000;   5.805;  -5.075;   2.658;   1.014;;;;;;;;;;;;;;;;;;
2008-12-09T16:29:59.274Z;0;1.8700e+01;0;     0.207;  2857.764;  38935.637; 0;  38830.621;  38935.637;  40285.781;  37428.020; 96;   5.817; 344.212; 292.817; 230.560; 245.781; 204.981;  22.158;  10.006;   9.637;   5.998;   5.805;  -5.075;   2.657;   1.011;;;;;;;;;;;;;;;;;;
2008-12-09T16:30:07.274Z;0;1.7260e+01;0;     0.163;  2862.664;  37415.582; 0;  37305.910;  37415.582;  38764.691;  35902.027; 96;   5.817; 344.282; 292.886; 230.630; 245.850; 205.051;  22.158;   9.990;   9.621;   5.997;   5.805;  -5.076;   2.657;   1.009;;;;;;;;;;;;;;;;;;
2008-12-09T16:30:15.274Z;0;1.8270e+01;0;     0.196;  2862.664;  38495.062; 0;  38388.477;  38495.062;  39846.480;  36983.816; 96;   5.817; 344.352; 292.954; 230.701; 245.919; 205.121;  22.158;   9.974;   9.605;   5.997;   5.804;  -5.076;   2.656;   1.007;;;;;;;;;;;;;;;;;;
2008-12-09T16:30:23.273Z;0;1.4660e+01;0;     0.170;  2862.664;  34503.625; 0;  34384.668;  34503.625;  35845.777;  32983.113; 96;   5.817; 344.422; 293.023; 230.771; 245.988; 205.192;  22.159;   9.958;   9.588;   5.996;   5.804;  -5.076;   2.656;   1.006;;;;;;;;;;;;;;;;;;
2008-12-09T16:30:39.273Z;0;1.6300e+01;0;     0.173;  2862.664;  36369.230; 0;  36256.395;  36369.230;  37715.969;  34853.305; 96;   5.816; 344.562; 293.161; 230.912; 246.126; 205.332;  22.159;   9.926;   9.556;   5.995;   5.804;  -5.077;   2.655;   1.002;;;;;;;;;;;;;;;;;;
2008-12-09T16:30:47.273Z;0;1.7110e+01;0;     0.160;  2862.664;  37253.855; 0;  37143.707;  37253.855;  38602.605;  35739.941; 96;   5.816; 344.632; 293.230; 230.982; 246.195; 205.402;  22.160;   9.910;   9.540;   5.994;   5.804;  -5.078;   2.655;   1.001;;;;;;;;;;;;;;;;;;
2008-12-09T16:31:03.273Z;0;1.7370e+01;0;     0.184;  2868.348;  37533.309; 0;  37423.547;  37533.309;  38885.191;  36016.844; 96;   5.816; 344.772; 293.368; 231.123; 246.333; 205.542;  22.160;   9.877;   9.508;   5.992;   5.804;  -5.078;   2.654;   0.997;;;;;;;;;;;;;;;;;;
2008-12-09T16:31:11.273Z;0;1.4150e+01;0;     0.185;  2868.348;  33900.840; 0;  33779.277;  33900.840;  35243.883;  32375.535; 96;   5.816; 344.842; 293.437; 231.193; 246.402; 205.612;  22.161;   9.861;   9.492;   5.992;   5.804;  -5.079;   2.654;   0.996;;;;;;;;;;;;;;;;;;
2008-12-09T16:31:19.273Z;0;1.6490e+01;0;     0.180;  2868.348;  36576.734; 0;  36464.094;  36576.734;  37926.461;  35058.113; 96;   5.816; 344.912; 293.505; 231.264; 246.471; 205.682;  22.161;   9.845;   9.476;   5.991;   5.803;  -5.079;   2.653;   0.994;;;;;;;;;;;;;;;;;;
2008-12-09T16:31:35.273Z;0;1.6060e+01;0;     0.171;  2868.348;  36097.766; 0;  35983.625;  36097.766;  37446.367;  34578.020; 96;   5.815; 345.052; 293.643; 231.405; 246.609; 205.822;  22.162;   9.813;   9.443;   5.989;   5.803;  -5.080;   2.652;   0.991;;;;;;;;;;;;;;;;;;
2008-12-09T16:31:43.273Z;0;1.8470e+01;0;     0.095;  2868.348;  38701.148; 0;  38594.707;  38701.148;  40055.520;  37187.172; 96;   5.815; 345.122; 293.712; 231.475; 246.678; 205.892;  22.162;   9.797;   9.427;   5.989;   5.803;  -5.080;   2.652;   0.989;;;;;;;;;;;;;;;;;;
2008-12-09T16:31:51.273Z;0;1.8430e+01;0;     0.142;  2868.348;  38661.566; 0;  38555.016;  38661.566;  40015.855;  37147.508; 96;   5.815; 345.192; 293.781; 231.545; 246.747; 205.962;  22.163;   9.781;   9.411;   5.988;   5.803;  -5.080;   2.652;   0.988;;;;;;;;;;;;;;;;;;
2008-12-09T16:31:59.273Z;0;1.7710e+01;0;     0.128;  2868.348;  37897.754; 0;  37789.051;  37897.754;  39250.430;  36382.082; 96;   5.815; 345.262; 293.850; 231.616; 246.817; 206.032;  22.163;   9.765;   9.395;   5.987;   5.803;  -5.081;   2.651;   0.986;;;;;;;;;;;;;;;;;;
2008-12-09T16:32:07.273Z;0;1.8660e+01;0;     0.140;  2869.132;  38894.605; 0;  38788.637;  38894.605;  40249.723;  37380.590; 96;   5.815; 345.332; 293.919; 231.686; 246.886; 206.102;  22.163;   9.749;   9.379;   5.987;   5.803;  -5.081;   2.651;   0.984;;;;;;;;;;;;;;;;;;
2008-12-09T16:32:15.273Z;0;1.7660e+01;0;     0.162;  2869.132;  37851.312; 0;  37742.414;  37851.312;  39204.234;  36335.102; 96;   5.815; 345.402; 293.988; 231.757; 246.955; 206.172;  22.164;   9.733;   9.363;   5.986;   5.803;  -5.082;   2.650;   0.983;;;;;;;;;;;;;;;;;;
2008-12-09T16:32:23.273Z;0;1.8850e+01;0;     0.148;  2869.132;  39092.539; 0;  38987.109;  39092.539;  40448.059;  37578.926; 96;   5.815; 345.472; 294.057; 231.827; 247.024; 206.242;  22.164;   9.716;   9.347;   5.985;   5.802;  -5.082;   2.650;   0.981;;;;;;;;;;;;;;;;;;
2008-12-09T16:32:31.273Z;0;1.8710e+01;0;     0.128;  2869.132;  38947.984; 0;  38842.164;  38947.984;  40303.211;  37434.078; 96;   5.815; 345.542; 294.125; 231.897; 247.093; 206.312;  22.164;   9.700;   9.330;   5.984;   5.802;  -5.082;   2.650;   0.980;;;;;;;;;;;;;;;;;;
2008-12-09T16:32:39.273Z;0;1.8710e+01;0;     0.162;  2869.132;  38946.949; 0;  38841.125;  38946.949;  40302.172;  37433.043; 96;   5.814; 345.612; 294.194; 231.968; 247.163; 206.382;  22.165;   9.684;   9.314;   5.984;   5.802;  -5.083;   2.649;   0.978;;;;;;;;;;;;;;;;;;
2008-12-09T16:33:11.272Z;0;1.5940e+01;0;     0.191;  2861.656;  35961.336; 0;  35847.297;  35961.336;  37306.668;  34445.012; 96;   5.814; 345.891; 294.470; 232.249; 247.440; 206.661;  22.166;   9.620;   9.250;   5.981;   5.802;  -5.084;   2.648;   0.971;;;;;;;;;;;;;;;;;;
2008-12-09T16:33:43.272Z;0;1.4810e+01;0;     0.229;  2861.656;  34671.129; 0;  34552.832;  34671.129;  36013.270;  33151.613; 96;   5.813; 346.171; 294.745; 232.531; 247.717; 206.941;  22.167;   9.555;   9.185;   5.978;   5.801;  -5.086;   2.646;   0.965;;;;;;;;;;;;;;;;;;
2008-12-09T16:34:23.272Z;0;1.7050e+01;0;     0.154;  2851.436;  37188.148; 0;  37078.668;  37188.148;  38531.789;  35680.352; 96;   5.813; 346.521; 295.090; 232.883; 248.065; 207.289;  22.169;   9.475;   9.105;   5.975;   5.801;  -5.087;   2.644;   0.957;;;;;;;;;;;;;;;;;;
2008-12-09T16:34:31.272Z;0;1.8580e+01;0;     0.167;  2851.436;  38808.879; 0;  38703.984;  38808.879;  40155.953;  37304.516; 96;   5.813; 346.591; 295.159; 232.953; 248.134; 207.359;  22.169;   9.459;   9.088;   5.974;   5.801;  -5.088;   2.644;   0.955;;;;;;;;;;;;;;;;;;
2008-12-09T16:34:39.272Z;0;2.0070e+01;0;     0.106;  2851.436;  40333.301; 0;  40232.379;  40333.301;  41683.352;  38831.918; 96;   5.812; 346.661; 295.228; 233.024; 248.204; 207.428;  22.170;   9.443;   9.072;   5.973;   5.800;  -5.088;   2.644;   0.953;;;;;;;;;;;;;;;;;;
2008-12-09T16:34:47.272Z;0;1.9460e+01;0;     0.119;  2851.436;  39719.691; 0;  39617.207;  39719.691;  41068.570;  38217.137; 96;   5.812; 346.731; 295.296; 233.094; 248.273; 207.498;  22.170;   9.426;   9.056;   5.973;   5.800;  -5.088;   2.643;   0.952;;;;;;;;;;;;;;;;;;
2008-12-09T16:34:55.272Z;0;2.1700e+01;0;     0.221;  2851.436;  41926.777; 0;  41829.703;  41926.777;  43279.711;  40428.273; 96;   5.812; 346.801; 295.365; 233.165; 248.343; 207.568;  22.170;   9.410;   9.040;   5.972;   5.800;  -5.089;   2.643;   0.950;;;;;;;;;;;;;;;;;;
2008-12-09T16:35:03.272Z;0;1.9000e+01;0;     0.109;  2857.540;  39247.898; 0;  39143.734;  39247.898;  40598.570;  37741.031; 96;   5.812; 346.871; 295.434; 233.235; 248.412; 207.637;  22.171;   9.394;   9.024;   5.971;   5.800;  -5.089;   2.642;   0.948;;;;;;;;;;;;;;;;;;
2008-12-09T16:35:11.271Z;0;1.8550e+01;0;     0.081;  2857.540;  38784.316; 0;  38678.906;  38784.316;  40134.055;  37276.516; 96;   5.812; 346.941; 295.503; 233.305; 248.482; 207.707;  22.171;   9.378;   9.008;   5.971;   5.800;  -5.090;   2.642;   0.947;;;;;;;;;;;;;;;;;;
2008-12-09T16:35:19.271Z;0;1.8200e+01;0;     0.056;  2857.540;  38419.914; 0;  38313.500;  38419.914;  39768.902;  36911.359; 96;   5.812; 347.011; 295.572; 233.376; 248.551; 207.776;  22.171;   9.362;   8.992;   5.970;   5.800;  -5.090;   2.642;   0.945;;;;;;;;;;;;;;;;;;
2008-12-09T16:35:27.271Z;0;1.8370e+01;0;     0.080;  2857.540;  38593.664; 0;  38487.730;  38593.664;  39943.012;  37085.473; 96;   5.812; 347.081; 295.641; 233.446; 248.621; 207.846;  22.172;   9.346;   8.975;   5.969;   5.800;  -5.090;   2.641;   0.944;;;;;;;;;;;;;;;;;;
2008-12-09T16:35:35.271Z;0;1.7980e+01;0;     0.059;  2857.540;  38183.602; 0;  38076.527;  38183.602;  39532.094;  36674.555; 96;   5.812; 347.151; 295.710; 233.517; 248.691; 207.915;  22.172;   9.330;   8.959;   5.968;   5.800;  -5.091;   2.641;   0.942;;;;;;;;;;;;;;;;;;
2008-12-09T16:35:43.271Z;0;1.9270e+01;0;     0.142;  2857.540;  39528.566; 0;  39425.145;  39528.566;  40879.797;  38022.254; 96;   5.811; 347.221; 295.779; 233.587; 248.760; 207.985;  22.172;   9.314;   8.943;   5.968;   5.800;  -5.091;   2.640;   0.940;;;;;;;;;;;;;;;;;;
2008-12-09T16:35:51.271Z;0;1.8530e+01;0;     0.088;  2857.540;  38758.562; 0;  38653.082;  38758.562;  40108.246;  37250.707; 96;   5.811; 347.291; 295.848; 233.658; 248.830; 208.054;  22.173;   9.298;   8.927;   5.967;   5.799;  -5.091;   2.640;   0.939;;;;;;;;;;;;;;;;;;
2008-12-09T16:35:59.271Z;0;1.7860e+01;0;     0.124;  2857.540;  38054.434; 0;  37946.996;  38054.434;  39402.652;  36545.113; 96;   5.811; 347.361; 295.916; 233.728; 248.900; 208.124;  22.173;   9.281;   8.911;   5.966;   5.799;  -5.092;   2.640;   0.937;;;;;;;;;;;;;;;;;;
2008-12-09T16:36:07.271Z;0;1.9610e+01;0;     0.157;  2853.592;  39872.480; 0;  39770.238;  39872.480;  41222.617;  38369.027; 96;   5.811; 347.431; 295.985; 233.798; 248.969; 208.193;  22.173;   9.265;   8.895;   5.966;   5.799;  -5.092;   2.639;   0.935;;;;;;;;;;;;;;;;;;
2008-12-09T16:36:15.271Z;0;1.7520e+01;0;     0.104;  2853.592;  37695.078; 0;  37586.910;  37695.078;  39040.777;  36187.188; 96;   5.811; 347.501; 296.054; 233.869; 249.039; 208.263;  22.174;   9.249;   8.879;   5.965;   5.799;  -5.092;   2.639;   0.934;;;;;;;;;;;;;;;;;;
2008-12-09T16:36:23.271Z;0;2.0310e+01;0;     0.163;  2853.592;  40571.203; 0;  40470.723;  40571.203;  41922.664;  39069.070; 96;   5.811; 347.571; 296.123; 233.939; 249.109; 208.332;  22.174;   9.233;   8.862;   5.964;   5.799;  -5.093;   2.639;   0.932;;;;;;;;;;;;;;;;;;
2008-12-09T16:36:31.271Z;0;1.9820e+01;0;     0.198;  2853.592;  40078.914; 0;  39977.199;  40078.914;  41429.449;  38575.855; 96;   5.811; 347.641; 296.192; 234.010; 249.179; 208.401;  22.174;   9.217;   8.846;   5.964;   5.799;  -5.093;   2.638;   0.930;;;;;;;;;;;;;;;;;;
2008-12-09T16:36:39.271Z;0;2.0590e+01;0;     0.140;  2853.592;  40844.020; 0;  40744.215;  40844.020;  42195.984;  39342.391; 96;   5.811; 347.711; 296.261; 234.080; 249.249; 208.471;  22.175;   9.201;   8.830;   5.963;   5.799;  -5.093;   2.638;   0.929;;;;;;;;;;;;;;;;;;
2008-12-09T16:36:47.271Z;0;2.0530e+01;0;     0.157;  2853.592;  40786.898; 0;  40686.953;  40786.898;  42138.758;  39285.164; 96;   5.810; 347.781; 296.330; 234.150; 249.318; 208.540;  22.175;   9.185;   8.814;   5.962;   5.799;  -5.094;   2.637;   0.927;;;;;;;;;;;;;;;;;;
2008-12-09T16:36:55.271Z;0;1.9940e+01;0;     0.165;  2853.592;  40198.555; 0;  40097.141;  40198.555;  41549.316;  38695.723; 96;   5.810; 347.851; 296.399; 234.221; 249.388; 208.609;  22.175;   9.169;   8.798;   5.962;   5.798;  -5.094;   2.637;   0.926;;;;;;;;;;;;;;;;;;
2008-12-09T16:37:03.271Z;0;1.9400e+01;0;     0.156;  2844.800;  39656.613; 0;  39554.445;  39656.613;  41002.410;  38157.613; 96;   5.810; 347.921; 296.468; 234.291; 249.458; 208.679;  22.176;   9.152;   8.782;   5.961;   5.798;  -5.095;   2.637;   0.924;;;;;;;;;;;;;;;;;;
2008-12-09T16:37:11.271Z;0;1.9620e+01;0;     0.159;  2844.800;  39880.984; 0;  39779.391;  39880.984;  41227.215;  38382.414; 96;   5.810; 347.991; 296.536; 234.362; 249.528; 208.748;  22.176;   9.136;   8.766;   5.960;   5.798;  -5.095;   2.636;   0.922;;;;;;;;;;;;;;;;;;